TIANLIAN 2-03

Last updated on Fri Dec 19 2025 00:02:53 GMT+0000 (Coordinated Universal Time)

1 53100U 22078A 25352.62744840 .00000097 00000+0 00000+0 0 9994 2 53100 0.2203 61.9231 0003625 215.7047 46.3319 1.00272489 12734
UTC large
Height (km)
Speed (km/s)
/
Latitude / Longitude
Inclination (degrees)
Orbital Period (minutes)
Azimuth
Elevation
Range (km)
Doppler Factor

Next 0 passes for location: London (51.5072 / 0.1276)

Sorry there are no passes over London.